Regional Weather Roundup
Issued by NWS Midland/Odessa, TX

Home | Current Version | Previous Version | Text Only | Print | Product List | Glossary On
Versions: 1 2 3 4 5 6 7 8 9 10 11 12 13 14 15 16 17 18 19 20 21 22 23 24 25 26 27 28 29 30 31 32 33 34 35 36 37 38 39 40 41 42 43 44 45 46 47 48 49 50
000
ASUS44 KMAF 061010
RWRMAF
MIDLAND AREA WEATHER ROUNDUP
NATIONAL WEATHER SERVICE MIDLAND TX
500 AM CDT MON JUL 06 2015

...IN SOUTHWEST TEXAS AND SOUTHEAST NEW MEXICO...

CITY           SKY/WX    TMP DP  RH WIND       PRES   REMARKS
ALPINE         MOCLDY    72  61  68 SW12      30.15S
ANDREWS        FAIR      74  65  73 S12       29.97S
ARTESIA        MOCLDY    77  63  61 CALM      29.97S
BIG SPRING     PTCLDY    77  66  69 SE14      29.98S
CARLSBAD       PTCLDY    76  61  59 SE3       29.94S
DRYDEN           N/A     77  68  73 VRB5      29.95S
FORT STOCKTON  PTCLDY    74  65  73 S12       29.97S
GUAD PASS      PTCLDY    66  61  84 SW20      30.11F
HOBBS          CLEAR     72  64  78 S10       29.99S
MARFA          MOCLDY   N/A N/A N/A CALM      30.14F
MIDLAND AIRPK  CLEAR     77  65  68 S12       29.96F
MIDLAND INTL   CLEAR     77  66  68 S14       29.96S
ODESSA         CLEAR     76  65  68 S13       29.97S
PECOS          PTCLDY    76  64  65 CALM      29.92S
PRESIDIO       FAIR      75  69  81 MISG      30.01S
SEMINOLE       CLEAR     73  64  73 S8        29.99S
SNYDER         CLEAR     74  67  78 S10       29.97F
WINK           CLEAR     76  65  68 S10       29.93S
$$
...OTHER STATIONS IN TEXAS...

CITY           SKY/WX    TMP DP  RH WIND       PRES   REMARKS
ABILENE        MOCLDY    77  70  79 S9        29.97R
AMARILLO       CLEAR     71  64  78 S13       29.96S
AUSTIN         CLOUDY    77  75  93 S12       30.01S
BROWNSVILLE    CLEAR     78  76  93 S10       29.98F
CORPUS CHRISTI PTCLDY    79  76  90 S12       30.00S
DALLAS FTW     MOCLDY    80  73  79 S15       29.97R
DEL RIO        PTCLDY    78  72  81 SE7       29.94R
EL PASO        CLOUDY    76  59  55 SW6       30.03S
HOUSTON INT    MOCLDY    80  77  90 S7        30.04R
LUBBOCK        PTCLDY    74  64  71 S15       29.97F
SAN ANGELO     PTCLDY    79  71  76 S10       29.96S
SAN ANTONIO    MOCLDY    78  72  81 S16       30.01S
WACO           CLOUDY    78  73  84 S17       30.00R
WICHITA FALLS  NOT AVBL
$$
...OTHER LOCATIONS IN NEW MEXICO...

CITY           SKY/WX    TMP DP  RH WIND       PRES   REMARKS
ALAMAGORDO     PTCLDY    75  57  53 CALM      30.04S
ALBUQUERQUE    CLOUDY    68  60  75 SW3       30.14F
CANNON AFB     PTCLDY    69  64  84 S8        29.99S
CLOVIS         PTCLDY    66  63  88 S7          N/A
HOLLOMAN AFB   PTCLDY    74  61  64 NE6       30.01S
ROSWELL        PTCLDY    74  62  66 CALM      29.95S
RUIDOSO        CLEAR     61  54  77 NW5       30.21F
SANTA FE       CLOUDY    62  57  83 N3        30.17F
TRUTH OR CONSE CLOUDY    72  56  57 NW8       30.09F
TUCUMCARI      CLEAR     73  58  59 SW10      29.92F
$$



USA.gov is the U.S. government's official web portal to all federal, state and local government web resources and services.